Lapse_Rate
5.9 6.0 6.4 6.9 7.5 7.5 7.0 7.3 7.6 8.3 7.4 7.0 6.8 7.1 7.7 6.4 5.7 5.9 5.8 5.6 5.8 5.9 6.1 5.8 5.5 5.3 5.2 5.2 5.2 5.2 5.2 5.2 5.1 5.0 5.0 5.1 5.3 5.5 5.6 5.6 5.6 5.9 6.0 5.9
6.2 6.3 6.7 7.2 6.9 6.9 7.2 7.3 7.6 7.8 8.2 7.8 6.8 7.2 7.6 7.6 6.3 5.6 5.5 5.4 5.1 5.7 5.8 5.9 5.6 5.5 5.5 5.5 5.3 5.2 5.1 4.9 4.8 4.8 4.7 4.8 5.0 5.2 5.3 5.6 5.8 5.7 5.8 5.9
6.7 7.1 7.1 6.8 6.8 6.9 7.1 7.2 7.5 7.8 8.1 7.4 7.0 7.3 7.9 8.3 7.1 5.8 5.8 5.5 5.1 5.4 5.5 5.5 5.4 5.4 5.3 5.3 5.2 5.0 4.9 4.8 4.8 4.8 5.1 5.3 5.4 5.6 5.8 6.0 6.1 6.1 6.1 6.0
6.8 7.2 6.9 6.7 6.7 6.9 7.2 7.6 7.7 7.4 7.3 7.5 8.0 7.8 8.6 8.2 7.7 6.3 6.0 6.1 5.5 6.0 5.7 5.5 5.5 5.4 5.4 5.5 5.3 5.2 5.1 5.0 5.1 5.1 5.4 5.6 5.8 6.1 6.1 6.2 6.4 6.5 6.5 6.6
6.7 7.1 7.2 6.9 6.9 7.0 7.0 7.2 7.1 7.4 7.4 7.3 7.6 8.0 8.3 9.2 7.7 6.5 6.3 6.1 5.9 6.5 6.1 5.7 5.9 5.8 5.7 5.6 5.4 5.4 5.4 5.3 5.4 5.4 5.6 5.8 5.8 5.7 5.7 6.2 6.2 6.2 6.3 6.2
6.6 7.4 6.8 6.5 6.7 6.8 7.0 6.6 6.9 7.0 7.4 7.2 7.6 8.1 7.9 8.9 8.9 7.6 5.8 5.3 6.1 6.7 5.9 5.8 5.8 5.8 5.7 5.7 5.5 5.6 5.6 5.6 5.7 5.7 5.8 5.7 5.6 5.3 5.2 5.2 5.4 5.3 5.3 5.5
6.7 6.8 6.8 6.3 6.5 6.5 6.6 6.6 7.0 7.2 7.6 7.4 8.3 8.6 9.3 8.6 8.4 8.1 7.1 6.8 5.7 6.2 5.8 5.8 5.9 5.8 5.6 5.7 5.7 5.8 5.9 6.0 5.9 6.0 5.6 5.7 5.7 5.4 5.2 4.7 4.6 5.0 5.1 5.0
6.7 6.8 6.8 6.5 5.9 6.9 6.7 7.0 7.5 7.7 8.1 8.7 9.1 9.1 8.5 8.6 7.6 7.6 7.8 7.4 7.1 6.7 6.4 6.4 6.1 6.0 5.9 6.0 6.0 6.0 6.0 6.0 6.0 5.9 5.8 5.9 6.1 6.4 6.3 5.5 4.7 4.9 5.0 5.2
7.8 7.6 8.0 7.5 6.4 6.6 6.9 6.8 7.3 7.6 7.6 7.8 7.8 8.6 8.1 7.6 7.3 7.4 7.7 7.9 7.2 6.6 6.3 6.8 6.5 6.2 6.1 6.1 6.2 6.1 6.0 6.0 5.9 6.0 5.8 6.0 6.1 6.4 6.3 6.0 5.0 4.5 4.6 4.9
7.5 8.1 8.1 7.1 7.4 6.8 7.2 7.3 7.1 7.2 7.1 7.3 7.9 8.5 8.4 7.7 7.3 6.6 6.9 6.9 6.8 6.0 5.1 6.7 6.7 6.3 6.1 6.1 6.1 6.0 6.0 6.1 6.1 5.8 5.9 6.2 6.4 6.5 6.6 6.4 5.6 4.6 4.4 4.7
8.0 8.2 8.0 7.1 6.9 7.4 7.4 7.3 7.4 7.5 7.5 7.7 7.6 7.9 8.2 7.9 7.5 7.4 7.5 7.7 7.4 6.6 5.7 6.6 6.7 6.5 6.3 6.1 6.0 6.0 6.1 6.2 5.9 6.1 6.0 6.3 6.5 6.9 7.3 7.0 6.3 5.7 4.7 4.7
8.2 8.0 8.2 7.9 7.9 7.9 8.0 7.4 7.5 7.3 7.5 7.9 8.0 7.5 8.1 7.6 7.4 7.8 7.9 7.9 7.5 6.5 6.3 6.9 7.1 6.8 6.5 6.3 6.0 6.0 6.2 6.2 6.1 6.4 6.3 6.2 6.7 7.3 7.2 6.9 6.5 6.4 5.9 5.0
8.1 7.8 8.3 8.2 7.8 7.9 7.9 7.8 7.8 8.0 8.0 7.5 7.8 7.3 7.7 7.9 7.9 7.9 7.6 7.7 7.1 6.6 6.5 6.9 7.2 6.9 6.7 6.5 6.2 6.1 6.0 6.0 6.4 6.6 6.6 6.9 7.1 7.0 6.9 7.0 6.8 6.5 6.3 6.0
8.0 8.2 8.5 8.8 8.7 8.0 7.7 7.9 7.9 8.2 8.2 7.9 7.6 7.8 7.9 8.1 8.3 8.2 8.0 8.1 7.7 7.3 7.3 7.2 7.1 6.8 6.7 6.6 6.3 6.3 6.1 6.0 6.4 6.5 6.8 7.0 6.7 6.9 7.5 7.7 7.6 7.4 7.3 6.8
7.9 7.8 8.5 8.5 8.2 7.6 7.4 7.3 7.7 8.2 8.2 8.3 7.5 8.2 7.8 8.2 8.1 8.1 7.8 7.8 7.8 7.5 7.4 7.4 7.1 6.9 6.7 6.7 6.5 6.3 6.1 6.1 6.4 6.5 6.8 6.8 6.8 7.5 7.4 7.4 7.4 7.2 7.2 7.2
7.5 7.4 7.6 7.9 8.2 7.9 7.6 7.3 7.9 7.7 7.3 7.9 8.3 7.9 8.4 8.2 8.2 8.0 7.9 7.6 7.6 7.2 7.0 7.2 7.0 7.0 6.8 6.7 6.5 6.2 5.9 6.1 6.5 6.4 6.7 7.0 7.2 7.7 7.4 7.4 7.4 7.2 7.0 6.9
7.6 7.3 7.3 7.3 7.7 7.6 6.9 6.9 7.6 7.7 8.0 8.1 8.3 8.0 8.0 8.4 8.4 8.1 8.0 7.6 7.3 7.2 7.2 7.3 7.2 7.1 7.0 6.6 6.3 6.1 6.1 6.3 6.4 6.5 6.9 6.9 7.5 7.4 7.3 7.3 7.4 7.3 7.2 7.2
7.2 7.2 7.0 7.0 7.5 7.3 7.3 7.9 8.0 8.0 8.0 8.1 8.3 8.2 8.5 8.4 8.0 8.2 7.9 7.6 7.4 7.4 7.3 7.3 7.2 7.2 6.9 6.5 6.2 6.0 6.0 6.4 6.4 6.7 6.8 7.0 7.4 7.3 7.1 7.1 7.2 7.3 7.2 7.0
6.7 7.0 6.9 7.2 7.7 7.8 7.5 7.9 8.0 8.1 7.9 8.1 8.1 8.2 8.2 8.0 8.1 7.9 7.6 7.5 7.4 7.4 7.3 7.4 7.4 7.1 6.7 6.4 6.1 6.1 6.2 6.4 6.4 6.7 6.9 7.1 7.2 7.2 7.0 7.1 6.9 7.0 7.0 7.1
6.9 7.0 6.9 7.0 7.6 7.7 7.5 8.5 8.3 8.3 7.5 8.1 8.0 8.0 8.0 7.9 7.9 7.7 7.4 7.2 7.3 7.2 7.4 7.5 7.4 7.1 6.7 6.2 6.2 6.1 6.2 6.3 6.3 6.3 6.6 7.0 7.2 7.1 7.0 6.9 6.9 6.8 6.9 6.9
7.0 6.9 6.9 7.1 7.2 7.5 7.7 8.6 8.0 8.0 8.0 7.8 7.8 7.8 7.9 7.8 7.7 7.5 7.3 7.3 7.1 7.2 7.5 7.5 7.5 7.0 6.5 6.3 6.1 6.2 6.3 6.3 6.3 6.2 6.6 6.8 7.1 7.1 7.0 6.8 6.9 6.6 6.9 7.0
7.4 7.4 7.2 7.2 7.5 7.5 8.0 8.5 7.9 8.0 7.8 7.5 7.5 7.5 7.6 7.5 7.3 7.1 7.0 7.0 7.0 7.1 7.5 7.4 7.3 7.1 6.7 6.4 6.1 6.2 6.3 6.2 6.2 6.2 6.6 7.0 6.8 6.8 6.9 6.8 6.8 6.9 6.7 6.7
7.7 7.5 7.6 7.9 7.9 8.2 8.1 8.4 8.1 7.9 7.7 7.3 7.1 7.0 7.1 7.4 7.1 6.9 6.8 6.6 6.8 7.1 7.5 7.4 7.2 7.1 6.8 6.5 6.2 6.2 6.2 6.2 6.0 6.0 6.3 6.6 6.7 6.8 6.7 6.7 6.8 6.6 6.6 6.6
8.2 8.1 7.7 8.1 7.8 8.0 7.8 7.9 7.5 7.5 7.2 7.1 7.3 6.9 7.1 7.3 7.0 6.8 6.8 6.7 6.8 7.2 7.4 7.4 7.2 7.0 6.7 6.4 6.3 6.2 6.1 6.1 5.9 5.9 6.3 6.5 6.5 6.8 6.8 6.6 6.6 6.5 6.5 6.5
8.0 8.2 7.6 7.6 7.8 7.9 7.9 7.6 7.5 7.3 7.3 7.2 7.0 7.2 7.1 7.1 7.0 6.7 6.7 6.8 7.1 7.4 7.4 7.3 7.1 6.9 6.6 6.3 6.3 6.3 6.2 6.1 6.0 6.0 6.2 6.3 6.4 6.7 6.8 6.7 6.4 6.5 6.4 6.4
7.7 7.8 7.8 7.4 8.0 7.9 7.8 7.6 7.3 7.5 7.6 7.4 7.0 7.1 7.0 6.8 7.1 7.0 7.0 7.1 7.3 7.3 7.3 7.2 7.0 6.7 6.4 6.2 6.2 6.3 6.3 6.2 6.0 6.0 6.0 6.2 6.3 6.6 6.7 6.7 6.5 6.4 6.3 6.4
Wind_Speed
15 11 14 16 17 17 6 9 12 11 9 9 8 11 11 18 15 13 12 12 10 8 8 6 4 6 6 8 9 9 9 9 8 8 9 9 9 9 9 13 17 20 20 19
15 16 17 17 2 4 9 13 14 13 14 7 5 14 13 16 19 14 13 12 12 12 9 7 5 5 5 6 7 7 9 9 8 7 7 7 8 9 9 12 19 20 22 22
17 7 6 8 8 7 13 14 15 15 14 6 9 15 18 17 16 14 11 12 12 11 11 7 5 5 4 6 6 7 8 8 8 9 7 8 7 8 8 10 9 15 22 21
19 19 12 10 11 12 15 14 15 13 12 12 9 10 12 12 15 14 10 7 10 10 6 6 5 4 4 4 4 5 6 7 8 9 8 10 8 9 9 8 10 11 19 18
18 16 17 20 16 15 16 6 6 10 12 14 16 10 12 11 16 16 14 12 11 11 10 8 6 3 4 4 4 4 5 6 8 8 9 7 9 8 8 8 12 11 12 17
23 20 11 16 12 15 8 5 9 11 10 13 15 14 9 8 16 19 17 16 14 12 9 8 7 5 5 5 4 4 5 6 8 8 9 10 11 11 9 11 9 9 9 9
23 23 16 8 11 7 11 9 5 8 8 10 14 12 6 10 10 16 14 15 15 12 10 9 8 5 5 4 5 4 6 7 8 8 9 10 11 11 11 12 9 12 9 9
17 18 24 16 18 14 14 15 7 7 9 10 2 4 4 13 12 11 8 11 14 11 8 7 6 4 4 3 6 6 7 8 8 8 9 9 11 7 7 10 10 8 9 10
7 20 14 24 13 17 14 15 14 13 13 7 8 10 10 11 11 9 8 6 9 9 10 8 8 4 3 3 6 7 7 8 8 8 8 9 9 10 10 11 10 9 11 11
13 10 4 5 1 15 16 3 6 4 4 7 9 12 3 10 11 10 7 11 9 10 11 9 7 6 4 4 7 7 7 7 7 8 8 8 9 10 9 9 10 11 11 13
14 9 4 8 8 13 10 10 8 7 9 4 5 3 7 5 3 5 3 4 6 9 13 10 7 8 6 7 6 5 4 6 7 8 8 8 7 8 8 8 9 9 10 11
11 2 5 13 8 16 13 15 14 4 6 6 9 8 8 7 7 5 6 8 6 12 13 13 8 6 5 4 2 3 5 6 6 7 7 7 7 8 8 8 9 11 11 9
4 4 5 8 7 5 8 9 14 12 9 13 9 4 2 5 8 10 12 8 9 12 14 13 9 6 5 5 3 3 4 3 4 6 6 7 7 7 8 8 8 10 12 13
2 4 7 8 10 2 6 13 15 14 8 9 12 8 11 9 11 13 13 8 7 12 13 12 10 9 8 5 5 3 5 3 4 4 6 6 6 6 6 7 9 10 11 13
3 6 2 5 10 3 12 13 15 15 12 13 9 12 14 9 12 13 5 6 3 11 13 10 9 9 8 8 8 7 6 3 4 5 5 5 6 6 7 8 9 10 11 12
5 2 3 4 6 8 10 15 15 15 13 16 13 19 15 13 16 2 2 2 1 5 12 11 10 10 9 9 7 8 8 6 6 5 4 4 5 4 6 8 8 8 10 11
3 2 3 7 9 10 6 15 13 14 16 13 15 17 13 12 11 4 4 4 4 3 11 11 10 9 8 8 7 8 8 6 9 6 4 4 3 3 4 6 6 7 8 9
4 4 3 4 6 9 8 11 17 15 16 15 16 15 12 8 7 5 4 2 3 6 10 10 9 9 9 9 8 9 10 8 6 8 7 4 2 3 3 3 5 4 5 7
14 8 4 5 9 11 15 3 10 9 13 11 12 12 10 7 3 4 4 2 1 7 9 8 8 9 8 9 8 8 8 8 8 6 6 8 5 3 3 3 4 3 3 4
19 12 7 6 8 9 9 12 2 5 8 8 13 7 5 4 3 3 4 6 9 9 8 8 9 9 7 4 7 6 6 7 6 5 6 6 6 6 3 2 2 2 2 3
6 8 12 9 7 8 11 4 7 7 1 6 2 1 1 2 2 6 7 11 9 8 11 9 8 9 7 6 9 8 7 6 4 4 6 5 5 5 5 5 3 3 3 2
9 6 7 8 9 13 9 9 10 3 3 5 2 2 4 7 5 6 8 11 10 10 9 9 9 8 6 6 8 8 7 5 5 4 3 3 3 3 3 3 1 3 3 4
10 7 7 7 7 6 7 5 7 2 2 2 3 6 9 8 7 9 10 11 11 10 9 8 9 9 6 6 7 9 8 6 5 5 3 3 3 3 3 4 5 4 4 4
9 12 10 9 10 9 2 5 4 4 4 5 3 1 11 8 10 10 10 10 10 12 11 11 10 9 8 7 8 8 9 7 6 6 5 3 4 4 5 5 6 7 7 5
4 7 11 10 6 8 8 5 7 5 5 4 2 3 8 10 11 11 9 11 11 11 11 11 11 11 11 10 8 9 9 9 8 7 6 6 5 6 7 6 5 6 6 7
8 6 7 6 5 7 5 5 2 2 3 6 8 8 7 9 10 11 10 10 11 12 12 12 12 12 13 12 11 12 11 10 9 8 6 5 5 6 7 6 6 11 10 12
Wind_Direction
209 223 231 235 228 250 340 297 298 304 141 175 234 260 251 183 194 193 185 167 167 153 123 114 76 72 34 46 32 20 18 14 5 7 355 353 344 339 333 331 330 357 344 352
241 227 246 246 333 269 273 280 279 273 274 240 237 263 260 197 188 195 185 172 170 143 160 138 115 93 62 51 36 17 20 12 22 8 343 346 343 328 328 341 348 342 352 349
220 166 187 226 210 249 254 259 269 270 285 199 236 257 253 249 171 187 176 175 160 159 160 150 143 98 66 52 33 13 18 16 32 9 358 355 333 342 343 343 340 348 343 338
247 236 227 222 244 240 258 256 262 249 273 261 246 275 295 126 162 170 166 147 126 121 126 137 155 117 85 66 55 20 10 25 29 16 3 359 354 345 344 341 341 338 332 335
239 238 235 247 242 234 251 301 281 270 260 270 260 264 252 226 171 174 167 161 155 151 160 148 142 118 109 88 59 38 3 36 36 14 16 7 3 352 343 340 338 337 334 328
247 266 216 243 236 241 263 198 246 253 258 257 252 250 258 251 198 178 163 156 154 141 149 151 141 152 117 82 56 18 12 41 37 16 19 19 8 352 350 350 343 337 329 327
244 232 247 226 248 197 232 209 228 218 223 247 251 248 276 122 97 134 143 152 144 154 162 166 171 164 99 57 49 3 22 31 32 13 21 25 15 1 354 351 342 337 335 335
226 237 220 185 216 220 219 213 219 224 239 278 92 207 57 81 114 108 113 135 143 153 161 156 138 114 87 70 52 26 19 25 21 16 23 26 19 3 2 350 348 344 343 338
258 237 225 224 182 214 221 215 249 279 286 280 260 271 103 105 111 123 125 124 143 160 158 164 128 125 93 59 68 44 18 25 22 19 28 28 16 7 2 358 356 352 348 342
256 283 264 112 277 203 241 297 214 241 221 226 246 255 112 151 161 156 185 178 192 184 158 136 134 119 99 68 78 52 25 24 20 20 36 29 15 7 3 0 1 0 350 347
232 261 215 133 199 196 213 224 235 225 232 263 279 284 171 152 117 122 315 192 195 189 141 135 107 123 77 46 48 50 28 33 27 27 29 34 20 8 6 2 1 2 344 359
212 295 227 209 216 232 211 211 222 211 235 257 255 253 119 141 151 200 235 263 254 125 136 120 117 83 91 105 82 79 42 44 26 37 32 34 23 11 11 2 2 5 358 14
187 237 212 216 188 241 242 250 222 225 228 240 256 248 75 138 187 236 239 259 139 143 137 130 140 149 147 165 121 99 92 60 35 45 41 35 26 15 6 5 9 25 10 11
285 227 224 219 202 100 220 252 251 253 246 257 245 265 270 286 299 305 311 17 108 145 150 152 156 160 165 161 149 143 99 84 70 51 51 41 26 15 6 22 15 33 24 17
210 227 76 323 126 164 240 255 278 252 259 236 260 255 272 304 316 302 8 31 39 143 157 161 158 156 157 163 162 160 127 112 92 76 60 50 33 21 25 30 31 25 36 26
207 192 83 327 271 234 239 245 252 257 250 265 271 272 274 279 276 186 184 227 217 168 162 161 166 164 170 167 160 144 129 136 103 88 74 49 47 29 33 29 47 35 37 33
46 33 172 243 245 271 294 246 248 261 262 260 261 267 288 280 281 56 48 123 151 220 155 165 166 166 158 155 157 144 140 137 122 106 88 69 42 45 39 41 34 46 47 43
146 124 247 236 224 239 240 231 226 229 244 255 262 266 268 306 99 98 78 140 219 181 149 159 157 163 149 152 164 138 138 135 116 121 120 110 72 55 37 48 56 41 55 59
209 187 196 231 218 256 273 190 202 211 243 257 270 271 284 91 144 120 95 96 107 133 133 135 143 137 161 151 147 140 137 128 112 101 108 128 130 100 68 36 54 33 45 58
221 214 222 230 225 234 258 252 330 215 250 232 250 282 303 131 275 102 128 104 74 77 106 117 128 147 88 109 88 96 103 90 90 90 96 83 97 97 76 96 108 63 54 56
208 198 217 227 246 263 273 216 140 207 9 113 86 81 93 154 67 137 132 105 105 104 110 94 84 110 100 83 104 99 102 103 81 71 87 72 87 88 67 53 28 88 91 71
202 193 206 233 244 258 255 171 194 152 96 130 199 102 86 118 121 129 116 129 136 133 123 113 117 119 113 108 121 127 119 117 110 102 96 88 88 81 75 86 43 39 35 60
201 214 205 207 213 238 329 328 168 75 44 23 201 123 141 152 182 171 158 156 158 159 153 136 135 133 137 136 145 137 137 136 138 120 116 112 94 74 46 52 30 43 31 50
243 212 218 251 265 274 276 276 314 251 274 212 250 205 156 167 183 186 174 174 167 172 169 160 152 153 155 160 155 143 144 145 141 148 152 159 138 92 53 73 57 44 29 36
233 275 270 259 290 279 265 331 359 333 360 325 186 267 168 159 186 190 188 181 174 171 173 172 175 173 168 166 154 149 153 157 159 158 162 150 125 101 87 63 68 81 52 50
245 240 243 246 242 251 276 344 15 301 261 264 244 199 229 185 180 185 197 194 178 174 172 178 181 177 173 173 166 166 167 174 164 164 167 169 152 157 140 129 100 87 96 82